#timestamp,LO_Frequency,Hit,StdDev 
1616605215.5,286046999.1,N
1616605235.3,286046995.6,N
1616605255.1,286046994.2,N
1616605275.9,286046992.6,N
1616605295.7,286046991.0,N
1616605315.5,286046990.3,N
1616605335.4,286046993.1,N
1616605355.2,286046992.3,N
1616605375.1,286046990.9,N
1616605376.0,286046990.9,N
1616605395.8,286046992.9,N
1616605415.6,286046991.5,N
1616605435.5,286046993.2,N
1616605455.3,286046990.2,N
1616605475.2,286046994.2,N
1616605495.9,286046990.1,N
1616605515.7,286046991.0,N
1616605535.6,286046991.4,N
1616605555.4,286046990.9,N
1616605575.2,286046992.8,N
1616605595.1,286046992.2,N
1616605596.0,286046992.2,N
1616605615.8,286046993.0,N
1616605635.7,286046993.4,N
1616605655.5,286046993.3,N
1616605675.3,286046995.1,N
1616605695.2,286046994.5,N
1616605715.0,286046994.3,N
1616605715.9,286046994.3,N
1616605735.7,286046994.6,N
1616605755.6,286046994.6,N
1616605775.4,286046996.4,N
1616605795.3,286046994.0,Y
1616605815.1,286047008.4,P
1616605835.8,286047005.0,N
1616605855.7,286047001.9,N
1616605875.5,286047002.5,N
1616605895.3,286047000.7,N
1616605915.2,286046999.4,N
1616605935.0,286046996.8,N
1616605935.9,286046996.8,N
1616605955.8,286047001.2,N
1616605975.6,286047000.2,N
1616605995.4,286047003.8,N
1616606015.3,286047002.2,N
1616606035.1,286047002.1,N
1616606055.9,286047000.3,N
1616606075.7,286046999.9,N
1616606095.5,286047002.0,N
1616606115.4,286047000.2,N
1616606135.2,286047003.7,N
1616606155.0,286047003.0,N
1616606156.0,286047003.0,N
1616606175.8,286047003.7,N
1616606195.6,286047003.5,N
1616606215.5,286047004.0,N
1616606235.3,286047001.3,N
1616606255.1,286047003.4,N
1616606275.9,286047003.6,N
1616606295.7,286047003.1,N
1616606315.5,286047004.7,N
1616606335.4,286047004.8,N
1616606355.2,286047006.9,N
1616606375.1,286047010.8,Y
1616606376.0,286047010.8,P
1616606395.8,286047008.4,N
1616606415.6,286047008.9,N
1616606435.5,286047010.1,Y
1616606455.3,286046993.9,P
1616606475.2,286047006.9,N
1616606495.9,286047015.1,N
1616606515.7,286047006.2,N
1616606535.6,286047003.5,N
1616606555.4,286047003.6,N
1616606575.2,286046993.0,N
1616606595.1,286047002.4,N
1616606596.0,286047002.4,N
1616606615.8,286047009.4,N
1616606635.6,286047004.7,N
1616606655.5,286047002.5,N
1616606675.3,286046999.9,N
1616606695.2,286047002.1,N
1616606715.9,286047001.3,N
1616606735.7,286047004.4,N
1616606755.6,286047005.8,N
1616606775.4,286047003.6,N
1616606795.2,286047003.7,N
1616606815.1,286046996.2,N
1616606816.0,286046996.2,N
1616606835.8,286047005.2,N
1616606855.7,286047014.7,Y
1616606875.5,286047007.2,P
1616606895.3,286047003.2,N
1616606915.2,286047004.4,N
1616606935.0,286047002.5,N
1616606935.9,286047002.5,N
1616606955.7,286047000.8,N
1616606975.6,286046999.9,N
1616606995.4,286047004.0,N
1616607015.3,286047006.1,Y
1616607035.1,286047001.6,P
1616607055.8,286046999.4,N
1616607075.7,286046995.6,N
1616607095.5,286046993.9,N
1616607115.4,286046994.4,N
1616607135.2,286046993.9,N
1616607155.0,286046993.5,N
1616607155.9,286046993.5,N
1616607175.8,286046996.3,N
1616607195.6,286046991.8,N
1616607215.4,286046989.1,Y
1616607235.3,286046990.6,P
1616607255.1,286046990.2,P
1616607275.9,286046994.8,N
1616607295.7,286046995.9,N
1616607315.5,286046995.5,N
1616607335.4,286046997.0,N
1616607355.2,286046998.3,N
1616607375.0,286046998.4,N
1616607375.9,286046998.4,N
1616607395.8,286047000.2,N
1616607415.6,286047002.3,N
1616607435.5,286047002.2,N
1616607455.3,286047003.5,N
1616607475.1,286046993.5,N
1616607495.9,286047011.1,N
1616607515.7,286047006.2,N
1616607535.5,286047004.2,N
1616607555.4,286047004.4,N
1616607575.2,286047002.0,N
1616607595.1,286047002.3,N
1616607596.0,286047002.3,N
1616607615.8,286047000.9,N
1616607635.6,286047000.0,N
1616607655.5,286047000.1,N
1616607675.3,286047002.8,N
1616607695.1,286047004.4,N
1616607715.9,286047002.3,N
1616607735.7,286047005.5,N
1616607755.6,286047006.3,N
1616607775.4,286047010.8,N
1616607795.2,286047012.4,N
1616607815.1,286047008.8,N
1616607816.0,286047008.8,N
1616607835.8,286047005.2,N
1616607855.7,286047003.6,N
1616607875.5,286047004.1,N
1616607895.3,286047002.8,N
1616607915.2,286047002.6,N
1616607935.9,286047002.1,N
1616607955.7,286047003.0,N
1616607975.6,286047004.8,N
1616607995.4,286047007.0,N
1616608015.2,286047009.1,N
1616608035.1,286047006.3,N
1616608036.0,286047006.3,N
1616608055.8,286047008.3,N
1616608075.7,286047008.2,N
1616608095.5,286047013.0,Y
1616608115.4,286047007.7,P
1616608135.2,286047006.9,P
1616608155.0,286047007.5,P
1616608155.9,286047007.5,Y
1616608175.8,286047001.0,P
1616608195.6,286047000.2,N
1616608215.4,286047003.0,N
1616608235.3,286047003.0,N
1616608255.1,286047004.2,N
1616608275.9,286047004.4,N
1616608295.7,286047001.4,N
1616608315.5,286047006.0,N
1616608335.4,286047007.4,Y
1616608355.2,286047003.7,P
1616608375.0,286047005.1,P
1616608375.9,286047005.1,P
1616608395.8,286047003.1,Y
1616608415.6,286047003.0,P
1616608435.5,286047003.2,P
1616608455.3,286047005.6,P
1616608475.1,286047007.4,Y
1616608495.9,286047012.7,P
1616608515.7,286047006.8,N
1616608535.5,286047005.6,N
1616608555.4,286047001.7,N
1616608575.2,286047001.5,N
1616608595.1,286047001.7,N
1616608596.0,286047001.7,N
1616608615.8,286047003.9,N
1616608635.6,286047004.1,N
1616608655.5,286047004.2,N
1616608675.3,286047005.5,N
1616608695.1,286047005.0,N
1616608715.9,286047007.3,N
1616608735.7,286047006.7,N
1616608755.6,286047012.3,Y
1616608775.4,286047007.7,P
1616608795.2,286047010.5,P
